Location: D�derode
(51.8092°N, 10.1065°E)
Time: 05:17:12
(UTC+00:00)

Cosmos 1869 Rocket - Pass Details

Date: 24 April 2021
Orbit: 604 x 634 km, 82.5° (Epoch: 11 May)

Event Time Altitude Azimuth Distance (km) Brightness Sun altitude
Rises 23:44:19 0° 345° (NNW) 2,892 8.1 -24.7°
Reaches altitude 10° 23:46:36 10° 340° (NNW) 1,977 7.0 -24.7°
Enters shadow 23:50:22 48° 288° (WNW) 799 4.1 -24.6°
